Location: York
(31.8935°S, 116.7682°E)
Time: 20:55:33
(UTC+08:00)

STRAND 1 - Visible Passes

Search period start: 03 August 2021 00:00
Search period end: 13 August 2021 00:00
Orbit: 767 x 781 km, 98.4° (Epoch: 02 August)

Date Brightness Start Highest point End Pass type
(mag) Time Alt. Az. Time Alt. Az. Time Alt. Az.
03 Aug ? 18:25:17 10° NNE 18:30:18 58° ESE 18:35:23 10° S visible
03 Aug ? 20:07:36 10° WNW 20:09:46 13° W 20:11:56 10° WSW visible
04 Aug ? 19:31:02 10° NNW 19:35:26 29° W 19:39:56 10° SW visible
05 Aug ? 06:08:57 10° ESE 06:11:19 13° E 06:13:41 10° ENE visible
05 Aug ? 18:56:12 10° N 19:01:17 67° WNW 19:06:28 10° SSW visible
06 Aug ? 18:22:18 10° NNE 18:27:17 54° ESE 18:32:20 10° S visible
06 Aug ? 20:04:12 10° WNW 20:06:43 14° W 20:09:15 10° WSW visible
07 Aug ? 19:27:53 10° NNW 19:32:24 31° W 19:37:00 10° SW visible
08 Aug ? 06:06:18 10° ESE 06:08:16 12° E 06:10:14 10° ENE visible
08 Aug ? 18:53:09 10° N 18:58:16 72° WNW 19:03:28 10° SSW visible
09 Aug ? 18:19:21 10° NNE 18:24:17 50° ESE 18:29:18 10° S visible
09 Aug ? 20:00:51 10° NW 20:03:40 15° W 20:06:31 10° WSW visible
10 Aug ? 19:24:46 10° NNW 19:29:23 34° W 19:34:04 10° SSW visible
11 Aug ? 06:03:47 10° ESE 06:05:13 11° E 06:06:39 10° ENE visible
11 Aug ? 18:50:07 10° N 18:55:15 78° WNW 19:00:28 10° SSW visible
12 Aug ? 18:16:22 10° NE 18:21:16 47° ESE 18:26:15 10° S visible
12 Aug ? 19:57:32 10° NW 20:00:37 16° W 20:03:44 10° WSW visible
